Regional Weather Roundup
Issued by NWS

Home | Current Version | Previous Version | Graphics & Text | Print | Product List | Glossary On
Versions: 1 2 3 4 5 6 7 8 9 10 11 12 13 14 15 16 17 18 19 20 21 22 23 24 25 26 27 28 29 30 31 32 33 34 35 36 37 38 39 40 41 42 43 44 45 46 47 48 49 50
621
ASUS43 KIND 292009
RWRIN

WEATHER ROUNDUP FOR INDIANA
NATIONAL WEATHER SERVICE INDIANAPOLIS IN
400 PM EDT WED MAR 29 2017

NOTE: "FAIR" INDICATES FEW OR NO CLOUDS BELOW 12,000 FEET WITH NO
SIGNIFICANT WEATHER AND/OR OBSTRUCTIONS TO VISIBILITY.

* - STATION DOES NOT REPORT WEATHER SUCH AS PRECIPITATION OR FOG.

+ - STATION NOT QUALITY CONTROLLED BY THE NATIONAL WEATHER SERVICE.
    USE DATA WITH CAUTION...ESPECIALLY DEWPOINT AND RELATIVE
    HUMIDITY OBSERVATIONS.

INZ001>003-010>013-019-020-292100-
NORTHWEST INDIANA

CITY           SKY/WX    TMP DP  RH WIND       PRES   REMARKS
GARY /AIRPORT/ CLOUDY    45  36  70 NE10      30.18F
KNOX *+        MOSUNNY   55   9  15 E15       30.17F
LA PORTE +     CLOUDY    54  37  52 E16       30.18F
MICHIGAN CITY+ CLOUDY    54  34  47 E3        30.18F
MONTICELLO +   PTSUNNY   56  36  46 E12G20    30.12F
RENSSELAER +   CLOUDY    55  36  47 E17G23    30.13F
VALPARAISO     CLOUDY    56  38  50 E21       30.15F

$$

LMZ046-743>745-292100-
SOUTHERN LAKE MICHIGAN

STATION/POSITION TIME  TEMP    WIND        PRES    WAVE
                       AIR SEA DIR/SP/G            HT
                 (UTC) (F)     (DEG/KT/KT) (MB)    (FT)
BURNS HARBOR     1940   42      60/  9/ 10 1022.7F
MICHIGAN CITY    1940   41      30/  9/ 10   N/A

$$

INZ004-005-014>016-021>024-292100-
NORTH CENTRAL INDIANA

CITY           SKY/WX    TMP DP  RH WIND       PRES   REMARKS
ELKHART        SUNNY     57  32  38 E13       30.20F
GOSHEN         MOSUNNY   55  34  45 E15       30.19F
LOGANSPORT +   MOSUNNY   55  37  50 E15G24    30.15F
PERU/GRISSOM   CLOUDY    58  40  51 E20G26    30.12F
ROCHESTER +    MOSUNNY   61  36  39 E16       30.17S
SOUTH BEND     CLOUDY    55  33  43 E9G20     30.20F
WARSAW +       MOSUNNY   54  34  47 E14G21    30.19F

$$

INZ006>009-017-018-025>027-292100-
NORTHEAST INDIANA

CITY           SKY/WX    TMP DP  RH WIND       PRES   REMARKS
ANGOLA *+      SUNNY     54  43  66 E13       30.21F
AUBURN +       MOSUNNY   55  36  47 E12G18    30.22F
FORT WAYNE     CLOUDY    57  38  48 E21G26    30.19F
HUNTINGTON +   MOSUNNY   55  38  52 E14G21    30.17F
KENDALLVILLE + MOSUNNY   55  36  50 E12G18    30.21F

$$

INZ028-029-035-036-043>045-051>053-292100-
WEST CENTRAL INDIANA

CITY           SKY/WX    TMP DP  RH WIND       PRES   REMARKS
CRAWFORDSVL +  CLOUDY    57  42  57 E17G25    30.10S
GREENCASTLE +  MOSUNNY   55  43  62 E18       30.09F
LAFAYETTE      MOSUNNY   58  41  53 E18       30.11F
TERRE HAUTE    CLOUDY    60  45  57 SE10      30.06F

$$

INZ030>032-037>040-046>048-054>057-064-065-292100-
CENTRAL INDIANA

CITY           SKY/WX    TMP DP  RH WIND       PRES   REMARKS
ANDERSON       SUNNY     57  43  58 E17G23    30.13
CP ATTERBURY + SUNNY     61  45  55 E9G16     30.11F
COLUMBUS       MOSUNNY   59  46  63 E9G16     30.10F
FISHERS *+     SUNNY     57  46  67 E12       30.12
FRANKFORT +    PTSUNNY   59  44  58 E22       30.13F
GREENWOOD *+   SUNNY     57  44  62 SE14      30.11F
INDIANAPOLIS   CLOUDY    58  43  57 E15       30.10F
-EAGLE CREEK   SUNNY     59  42  53 E16G22    30.10F
KOKOMO +       MOSUNNY   56  43  61 E18G25    30.14F
MARION +       SUNNY     56  41  57 E14G23    30.14F
MT COMFORT *+  SUNNY     57  43  58 E15       30.11F
SHELBYVILLE    MOSUNNY   58  43  57 E15       30.10F
ZIONSVILLE +   SUNNY     55  43  63 E15       30.12F

$$

INZ033-034-041-042-049-050-058-059-292100-
EAST CENTRAL INDIANA

CITY           SKY/WX    TMP DP  RH WIND       PRES   REMARKS
MUNCIE         SUNNY     59  44  57 E15G25    30.13F
RICHMOND +     SUNNY     59  41  51 E10G20    30.13F

$$

INZ060-061-067>069-081>083-085>088-292100-
SOUTHWEST INDIANA

CITY           SKY/WX    TMP DP  RH WIND       PRES   REMARKS
EVANSVILLE     SUNNY     70  52  52 E15       29.97F
HUNTINGBURG *+ PTSUNNY   66  53  63 E13       30.03F
WASHINGTON +   CLOUDY    60  48  64 MISG      30.04F

$$

INZ062-063-066-070>080-084-089>092-292100-
SOUTH CENTRAL AND SOUTHEAST INDIANA

CITY           SKY/WX    TMP DP  RH WIND       PRES   REMARKS
BEDFORD +      MOSUNNY   61  46  59 E7        30.07F
BLOOMINGTON    PTSUNNY   60  45  57 SE9       30.07F
MADISON *+     SUNNY     61  46  59 E10       30.10F
NORTH VERNON + SUNNY     63  43  48 E5        30.11
SEYMOUR +      SUNNY     64  46  52 SE6       30.07F

$$





USA.gov is the U.S. government's official web portal to all federal, state and local government web resources and services.